Regional Weather Roundup
Issued by NWS Newport/Morehead, NC

Current Version | Previous Version | Graphics & Text | Print | Product List | Glossary On
Versions: 1 2 3 4 5 6 7 8 9 10 11 12 13 14 15 16 17 18 19 20 21 22 23 24 25 26 27 28 29 30 31 32 33 34 35 36 37 38 39 40 41 42 43 44 45 46 47 48 49 50
157 ASUS42 KMHX 181125 RWRMHX WEATHER ROUNDUP FOR EASTERN NORTH CAROLINA NATIONAL WEATHER SERVICE NEWPORT/MOREHEAD CITY NC 600 AM EST WED JAN 18 2017 NOTE: "FAIR" INDICATES FEW OR NO CLOUDS BELOW 12,000 FEET WITH NO SIGNIFICANT WEATHER AND/OR OBSTRUCTIONS TO VISIBILITY NCZ015>017-031-032-045>047-102-103-181200- NORTH COAST CITY SKY/WX TMP DP RH WIND PRES REMARKS EDENTON CLOUDY 62 56 82 CALM 29.94R ELIZABETH CITY CLOUDY 59 56 89 SW7 29.92S KITTY HAWK NOT AVBL MANTEO DRIZZLE 56 56 97 W7 29.93S $$ NCZ045>047-081-094-103-104-181200- CENTRAL COAST CITY SKY/WX TMP DP RH WIND PRES REMARKS FRISCO LGT RAIN 62 57 83 W14G22 29.96S $$ NCZ095-097-098-100-101-181200- SOUTHERN COAST CITY SKY/WX TMP DP RH WIND PRES REMARKS BEAUFORT CLOUDY 59 56 89 MISG 29.99F CEDAR ISLAND NOT AVBL JACKSONVILLE MOCLDY 63 58 83 SW9 29.98F PINEY ISLAND CLOUDY N/A N/A N/A SW13 29.96F WILMINGTON MOCLDY 63 58 83 SW13G23 30.02R $$ NCZ011>013-027>030-043-044-078>080-089-090>093-098-181200- COASTAL PLAIN CITY SKY/WX TMP DP RH WIND PRES REMARKS AHOSKIE N/A 56 55 95 CALM 29.94R CLINTON MOCLDY 63 58 84 SW7 29.98R ELIZABETHTOWN CLOUDY 63 58 83 SW8 29.99F GOLDSBORO CLOUDY 62 61 95 SW10 29.93S GREENVILLE MOCLDY 63 59 88 SW8 29.96R HAVELOCK CLOUDY 62 56 80 SW13 29.98F KENANSVILLE CLOUDY 61 57 88 SW6 29.97S KINSTON CLOUDY 63 57 80 SW10 29.96S NEW BERN CLOUDY 63 56 78 SW9 29.97F RICHLANDS MOCLDY 61 58 90 SW10 29.98F ROCKY MOUNT CLOUDY 63 57 81 W7 29.95R WASHINGTON CLOUDY 61 56 84 SW10 29.94S WHITEVILLE CLOUDY 64 57 80 SW10 30.01S $$ AMZ130-135-150-152-154-156-158-170-250-252-270-ANZ085-086-088-633-658-670-181200- MARINE OBSERVATIONS STATION/POSITION TIME TEMP WIND PRES WAVE SWELL AIR SEA DIR/SP/G HT/PER HT/PER (UTC) (F) (DEG/KT/KT) (MB) (FT/S) (FT/S) CHESAPEAKE LIGHT NOT AVBL 64 E VA BEACH 1050 57 57 240/ 16/ 17 1011.9 4/ 5 2/ 8 DUCK 1100 55 45 250/ 12/ 15 1012.5 2 E DUCK 1100 45 N/A 1/ 9 OREGON INLET 1100 210/ 11/ 12 1013.6 13E OREGON INLT NOT AVBL HATTERAS CG 1100 61 53 230/ 12/ 16 1014.1 DIAMOND BUOY 1050 70 72 240/ 27/ 33 1013.9 8/ 6 2/10 CAPE LOOKOUT 1100 62 230/ 15/ 22 1015.2 BEAUFORT LAB 1100 59 50 250/ 6/ 12 1014.7 30 SE NEW RVR IN 1108 62 61 250/ 21/ 29 1016.4 30 SE NEW RVR IN 1113 61 N/A 6/ 5 27 SE WRIGHTSVLE 1108 66 69 230/ 21/ 29 1016.1 5 SE WRIGHTSVLE 1008 59 240/ 14/ 17 1016.5 225 S CAPE HAT 1050 72 72 240/ 16/ 17 1019.3 4/ 5 2/ 9 41 SE CHARLESTON 1050 70 71 240/ 19/ 21 1018.6 4/ 4 2/ 9 $$

USA.gov is the U.S. government's official web portal to all federal, state and local government web resources and services.